2022/09/27 23:33:10+0000,-36.62,-47.43,-35.09,-49.77,-50.23,-52.86
2022/09/27 23:34:02+0000,-36.51,-48.06,-35.35,-49.58,-50.15,-52.68
2022/09/27 23:34:54+0000,-36.28,-46.65,-34.89,-49.99,-49.20,-52.68
2022/09/27 23:35:46+0000,-36.15,-47.82,-35.18,-49.88,-49.56,-52.72
2022/09/27 23:36:39+0000,-37.14,-47.25,-35.69,-49.85,-49.62,-52.78
2022/09/27 23:37:31+0000,-37.32,-46.73,-35.23,-49.52,-49.32,-53.29
2022/09/27 23:38:23+0000,-36.95,-47.56,-34.94,-50.38,-49.89,-52.35
2022/09/27 23:39:15+0000,-37.19,-47.78,-35.40,-49.96,-49.04,-48.02
2022/09/27 23:40:07+0000,-36.73,-47.64,-35.22,-49.94,-48.82,-52.27
2022/09/27 23:41:06+0000,-36.92,-46.95,-35.03,-50.76,-45.61,-51.56
2022/09/27 23:41:58+0000,-37.26,-46.49,-34.70,-49.93,-49.28,-53.74
2022/09/27 23:42:50+0000,-37.03,-47.28,-35.26,-51.76,-52.90,-53.42
2022/09/27 23:43:42+0000,-36.83,-47.43,-34.95,-50.92,-51.91,-53.50
2022/09/27 23:44:34+0000,-37.21,-47.70,-35.26,-52.04,-52.08,-53.71
2022/09/27 23:45:26+0000,-36.65,-47.43,-35.00,-49.73,-51.17,-53.72
2022/09/27 23:46:18+0000,-36.39,-47.16,-34.88,-49.89,-52.63,-53.37
2022/09/27 23:47:10+0000,-35.94,-47.91,-35.38,-50.54,-52.78,-53.49
2022/09/27 23:48:02+0000,-37.25,-47.70,-35.69,-49.83,-51.19,-53.55
2022/09/27 23:48:54+0000,-35.59,-47.73,-34.84,-49.47,-52.37,-53.70
2022/09/27 23:49:46+0000,-36.80,-47.57,-34.80,-50.21,-52.96,-53.10
2022/09/27 23:50:38+0000,-36.63,-47.53,-35.05,-51.01,-51.71,-53.82
2022/09/27 23:51:37+0000,-36.76,-46.98,-35.38,-49.75,-51.81,-53.53
2022/09/27 23:52:29+0000,-36.35,-47.50,-35.47,-49.03,-53.16,-53.94
2022/09/27 23:53:21+0000,-36.51,-47.29,-35.23,-50.39,-53.05,-53.82
2022/09/27 23:54:13+0000,-36.66,-46.40,-34.89,-51.10,-53.22,-53.62
2022/09/27 23:55:05+0000,-35.79,-46.01,-34.27,-52.12,-50.71,-53.08
2022/09/27 23:55:57+0000,-36.17,-47.66,-34.94,-50.28,-52.43,-53.98
2022/09/27 23:56:49+0000,-36.67,-46.96,-34.79,-52.15,-51.64,-53.69
2022/09/27 23:57:41+0000,-36.99,-47.92,-35.04,-51.05,-52.17,-53.17
2022/09/27 23:58:33+0000,-37.25,-46.53,-35.37,-50.00,-52.70,-53.61
2022/09/27 23:59:26+0000,-36.68,-47.50,-34.53,-50.02,-51.98,-53.86
2022/09/28 00:00:18+0000,-36.61,-46.18,-34.52,-50.80,-52.37,-53.36
2022/09/28 00:01:20+0000,-36.52,-47.51,-34.48,-50.00,-52.77,-54.26
2022/09/28 00:02:12+0000,-36.90,-47.25,-34.38,-50.73,-52.64,-53.96
2022/09/28 00:03:04+0000,-37.06,-47.32,-35.09,-50.90,-52.91,-53.24
2022/09/28 00:03:56+0000,-37.02,-47.35,-34.45,-48.88,-52.24,-54.06
2022/09/28 00:04:48+0000,-36.72,-47.09,-34.92,-51.56,-53.46,-53.65
2022/09/28 00:05:41+0000,-37.03,-47.34,-35.17,-51.05,-53.50,-53.80
2022/09/28 00:06:33+0000,-37.13,-47.25,-35.17,-51.20,-52.65,-53.65
2022/09/28 00:07:25+0000,-36.43,-46.60,-34.21,-48.13,-53.33,-54.00
2022/09/28 00:08:17+0000,-36.93,-46.57,-34.89,-50.72,-52.21,-53.33
2022/09/28 00:09:09+0000,-36.45,-47.24,-34.67,-49.08,-52.58,-53.60
2022/09/28 00:10:01+0000,-36.80,-47.08,-35.41,-50.80,-52.62,-54.07
2022/09/28 00:11:00+0000,-36.23,-46.78,-35.42,-49.93,-52.41,-53.95
2022/09/28 00:11:52+0000,-36.30,-46.47,-35.55,-49.84,-52.73,-54.21
2022/09/28 00:12:44+0000,-37.03,-47.69,-34.71,-49.83,-52.97,-54.50
2022/09/28 00:13:36+0000,-37.17,-47.60,-34.49,-49.61,-52.57,-54.41
2022/09/28 00:14:28+0000,-36.21,-48.14,-35.40,-50.73,-52.80,-53.79
2022/09/28 00:15:20+0000,-36.59,-48.12,-34.55,-50.76,-52.09,-53.86
2022/09/28 00:16:12+0000,-37.20,-47.36,-35.19,-50.65,-52.81,-53.83
2022/09/28 00:17:04+0000,-37.03,-47.12,-35.37,-51.46,-45.48,-51.88
2022/09/28 00:17:56+0000,-36.96,-47.61,-34.86,-47.52,-50.52,-53.09
2022/09/28 00:18:48+0000,-36.97,-47.15,-35.28,-52.25,-49.82,-52.71
2022/09/28 00:19:40+0000,-37.04,-46.85,-35.02,-51.55,-50.01,-52.96
2022/09/28 00:20:32+0000,-36.87,-46.49,-34.93,-51.25,-48.42,-52.74
2022/09/28 00:21:32+0000,-35.92,-46.85,-35.32,-47.93,-48.97,-52.86
2022/09/28 00:22:24+0000,-36.88,-46.70,-35.59,-47.41,-47.59,-52.74
2022/09/28 00:23:16+0000,-37.28,-46.70,-35.31,-50.75,-49.55,-52.64
2022/09/28 00:24:08+0000,-36.95,-47.43,-34.95,-51.12,-48.29,-52.83
2022/09/28 00:25:00+0000,-36.55,-47.21,-34.66,-47.82,-49.24,-52.78
2022/09/28 00:25:52+0000,-37.07,-47.85,-35.40,-47.74,-50.37,-52.68
2022/09/28 00:26:44+0000,-37.49,-46.59,-35.01,-50.81,-38.28,-51.34
2022/09/28 00:27:36+0000,-36.43,-46.36,-35.58,-50.46,-49.63,-50.29
2022/09/28 00:28:28+0000,-36.41,-45.95,-35.37,-47.80,-48.74,-52.68
2022/09/28 00:29:20+0000,-36.47,-47.24,-35.13,-50.86,-49.19,-52.43
2022/09/28 00:30:12+0000,-35.98,-46.81,-34.99,-49.07,-51.64,-52.86
2022/09/28 00:31:12+0000,-37.57,-47.08,-35.40,-50.11,-52.29,-53.32
2022/09/28 00:32:04+0000,-36.07,-47.74,-34.93,-50.01,-52.26,-53.62
2022/09/28 00:32:56+0000,-37.14,-46.90,-35.33,-47.65,-51.97,-53.62
2022/09/28 00:33:48+0000,-36.18,-46.55,-35.21,-50.72,-53.09,-53.54
2022/09/28 00:34:40+0000,-36.25,-46.86,-34.73,-50.35,-52.63,-53.35
2022/09/28 00:35:32+0000,-35.49,-47.47,-34.67,-47.68,-51.89,-53.70
2022/09/28 00:36:24+0000,-35.88,-46.72,-35.02,-47.64,-52.12,-52.56
2022/09/28 00:37:16+0000,-37.31,-47.06,-34.78,-49.96,-51.51,-53.14
2022/09/28 00:38:08+0000,-35.52,-46.74,-34.37,-51.14,-51.93,-52.74
2022/09/28 00:39:00+0000,-36.63,-46.52,-35.15,-46.88,-52.78,-53.59
2022/09/28 00:39:52+0000,-36.65,-47.08,-34.56,-47.25,-52.28,-53.14
2022/09/28 00:40:44+0000,-36.81,-46.27,-35.50,-49.89,-52.25,-53.79
2022/09/28 00:41:43+0000,-36.82,-45.23,-34.95,-49.87,-51.98,-53.35
2022/09/28 00:42:36+0000,-37.00,-47.47,-34.84,-51.24,-52.01,-53.82
2022/09/28 00:43:28+0000,-36.73,-46.75,-34.64,-47.60,-51.74,-53.15
2022/09/28 00:44:20+0000,-36.78,-47.34,-34.93,-50.65,-52.51,-53.62
2022/09/28 00:45:12+0000,-36.47,-47.39,-35.11,-50.35,-52.13,-53.36
2022/09/28 00:46:04+0000,-36.84,-47.70,-34.73,-51.83,-52.30,-53.95
2022/09/28 00:46:56+0000,-36.82,-46.98,-35.18,-48.06,-52.20,-53.67
2022/09/28 00:47:48+0000,-36.31,-47.85,-35.37,-50.40,-52.14,-53.98
2022/09/28 00:48:40+0000,-37.10,-47.75,-35.50,-50.43,-53.55,-53.33
2022/09/28 00:49:32+0000,-37.19,-47.42,-35.18,-47.80,-53.55,-53.14
2022/09/28 00:50:24+0000,-36.46,-47.98,-35.00,-47.56,-52.46,-52.94
2022/09/28 00:51:23+0000,-36.89,-47.74,-35.18,-47.62,-52.56,-53.40
2022/09/28 00:52:15+0000,-36.94,-47.54,-35.04,-50.31,-51.11,-53.70
2022/09/28 00:53:07+0000,-36.76,-48.77,-34.94,-50.45,-51.54,-53.17
2022/09/28 00:53:59+0000,-36.71,-48.05,-35.01,-47.50,-51.46,-53.16
2022/09/28 00:54:51+0000,-36.61,-46.59,-35.27,-50.59,-51.77,-52.78
2022/09/28 00:55:43+0000,-37.19,-47.11,-34.79,-49.78,-51.76,-52.74
2022/09/28 00:56:35+0000,-36.95,-47.71,-34.80,-50.65,-52.12,-53.23
2022/09/28 00:57:27+0000,-36.22,-47.44,-34.61,-47.16,-52.11,-53.49
2022/09/28 00:58:19+0000,-36.98,-45.94,-35.31,-50.99,-51.62,-53.64
2022/09/28 00:59:11+0000,-36.54,-47.38,-35.09,-50.49,-52.98,-52.78
2022/09/28 01:00:03+0000,-36.11,-47.40,-35.23,-46.86,-52.50,-53.18
2022/09/28 01:01:03+0000,-36.44,-46.38,-35.30,-50.26,-52.08,-53.22
2022/09/28 01:01:55+0000,-37.14,-47.23,-34.50,-47.88,-52.13,-53.41
2022/09/28 01:02:47+0000,-36.97,-46.47,-34.84,-50.37,-52.25,-53.13
2022/09/28 01:03:39+0000,-36.22,-46.14,-34.86,-50.19,-52.43,-53.47
2022/09/28 01:04:31+0000,-36.60,-47.56,-35.94,-49.45,-51.81,-51.15
2022/09/28 01:05:23+0000,-36.76,-47.13,-34.84,-46.49,-48.80,-52.93
2022/09/28 01:06:15+0000,-36.58,-47.44,-35.00,-50.64,-48.51,-53.01
2022/09/28 01:07:07+0000,-37.11,-47.57,-35.23,-50.37,-48.91,-52.70
2022/09/28 01:07:59+0000,-36.98,-46.89,-35.21,-46.95,-49.87,-52.53
2022/09/28 01:08:51+0000,-36.87,-49.32,-34.51,-47.33,-48.95,-52.28
2022/09/28 01:09:44+0000,-36.21,-46.82,-34.28,-49.96,-48.85,-50.35
2022/09/28 01:10:36+0000,-36.97,-48.86,-35.54,-50.22,-48.36,-52.02
2022/09/28 01:11:38+0000,-37.25,-46.70,-34.67,-50.67,-45.18,-51.83
2022/09/28 01:12:30+0000,-36.65,-45.46,-35.35,-47.67,-51.69,-53.50
2022/09/28 01:13:22+0000,-36.63,-49.21,-34.40,-47.65,-51.26,-53.84
2022/09/28 01:14:14+0000,-36.55,-46.81,-35.00,-50.71,-50.73,-53.62
2022/09/28 01:15:06+0000,-36.96,-49.27,-34.45,-49.82,-50.40,-52.96
2022/09/28 01:15:58+0000,-36.27,-46.23,-35.11,-47.92,-53.09,-54.19
2022/09/28 01:16:50+0000,-36.79,-48.41,-35.49,-46.52,-52.87,-54.01
2022/09/28 01:17:42+0000,-36.88,-46.23,-35.30,-50.65,-52.68,-54.17
2022/09/28 01:18:34+0000,-36.27,-47.17,-34.66,-51.27,-53.67,-53.62
2022/09/28 01:19:26+0000,-36.60,-46.74,-35.20,-46.17,-52.19,-53.97
2022/09/28 01:20:18+0000,-36.69,-45.22,-35.07,-51.44,-47.72,-52.13
2022/09/28 01:21:17+0000,-35.97,-45.44,-34.79,-50.65,-51.09,-53.45
2022/09/28 01:22:09+0000,-37.54,-44.98,-34.87,-50.49,-50.95,-53.50
2022/09/28 01:23:01+0000,-36.23,-45.81,-35.11,-47.56,-51.65,-53.79
2022/09/28 01:23:53+0000,-36.50,-45.27,-34.52,-47.58,-51.90,-52.72
2022/09/28 01:24:45+0000,-36.31,-45.29,-34.33,-50.82,-51.87,-53.42
2022/09/28 01:25:37+0000,-36.50,-46.30,-34.90,-50.98,-50.88,-53.70
2022/09/28 01:26:29+0000,-36.28,-44.42,-34.69,-47.67,-51.36,-53.76
2022/09/28 01:27:21+0000,-36.50,-46.75,-35.59,-47.83,-50.96,-53.69
2022/09/28 01:28:13+0000,-36.10,-44.20,-34.97,-50.79,-52.11,-52.88
2022/09/28 01:29:06+0000,-35.83,-45.93,-34.81,-49.76,-51.18,-53.13
2022/09/28 01:29:58+0000,-36.40,-45.06,-35.57,-47.69,-51.35,-52.98
2022/09/28 01:30:50+0000,-36.09,-44.51,-34.28,-50.94,-51.13,-53.49
2022/09/28 01:31:49+0000,-36.46,-44.77,-34.67,-50.46,-50.78,-53.02
2022/09/28 01:32:41+0000,-36.30,-44.60,-34.94,-50.39,-51.20,-52.72
2022/09/28 01:33:33+0000,-36.37,-43.68,-34.67,-47.62,-47.69,-52.36
2022/09/28 01:34:25+0000,-36.33,-46.29,-35.11,-47.09,-49.86,-51.93
2022/09/28 01:35:17+0000,-35.36,-45.43,-34.91,-49.50,-51.36,-53.48
2022/09/28 01:36:09+0000,-36.53,-45.28,-34.75,-50.01,-51.53,-52.90
2022/09/28 01:37:01+0000,-35.51,-44.89,-34.93,-47.15,-51.92,-53.17
2022/09/28 01:37:53+0000,-35.17,-46.15,-34.27,-49.35,-51.43,-54.04
2022/09/28 01:38:45+0000,-37.21,-45.66,-34.68,-50.26,-51.27,-53.22
2022/09/28 01:39:37+0000,-36.03,-47.77,-35.18,-47.82,-51.62,-53.30
2022/09/28 01:40:29+0000,-36.09,-44.79,-35.47,-49.11,-50.00,-53.89
2022/09/28 01:41:28+0000,-37.01,-44.63,-35.55,-49.28,-51.56,-53.90
2022/09/28 01:42:20+0000,-36.06,-45.68,-34.49,-51.13,-51.88,-53.62
2022/09/28 01:43:12+0000,-36.35,-44.41,-35.14,-49.73,-52.55,-53.07
2022/09/28 01:44:04+0000,-35.00,-44.65,-35.02,-50.53,-52.49,-53.64
2022/09/28 01:44:56+0000,-35.77,-44.96,-34.20,-50.16,-51.64,-53.41
2022/09/28 01:45:48+0000,-36.75,-45.12,-35.22,-49.53,-52.04,-53.80
2022/09/28 01:46:40+0000,-36.66,-45.21,-35.31,-49.62,-51.93,-53.07
2022/09/28 01:47:32+0000,-35.69,-43.87,-35.51,-47.49,-51.40,-53.09
2022/09/28 01:48:24+0000,-35.96,-45.27,-34.91,-47.64,-51.29,-53.87
2022/09/28 01:49:16+0000,-36.24,-44.31,-34.56,-49.54,-51.88,-53.41
2022/09/28 01:50:09+0000,-36.71,-44.42,-35.19,-49.92,-52.25,-53.34
2022/09/28 01:51:07+0000,-36.55,-45.91,-35.63,-50.59,-51.66,-53.29
2022/09/28 01:51:59+0000,-36.90,-43.29,-35.51,-50.45,-51.71,-53.33
2022/09/28 01:52:52+0000,-35.62,-45.28,-35.26,-47.39,-52.28,-54.22
2022/09/28 01:53:44+0000,-37.09,-43.60,-35.32,-50.25,-52.59,-53.54
2022/09/28 01:54:36+0000,-36.82,-44.48,-35.02,-50.28,-52.65,-53.39
2022/09/28 01:55:28+0000,-36.54,-44.87,-34.67,-47.98,-52.49,-54.23
2022/09/28 01:56:20+0000,-37.21,-44.02,-34.29,-50.39,-52.40,-53.82
2022/09/28 01:57:12+0000,-37.09,-43.34,-35.12,-50.63,-51.51,-52.63
2022/09/28 01:58:04+0000,-36.58,-44.70,-35.14,-47.46,-50.97,-53.33
2022/09/28 01:58:56+0000,-37.16,-45.17,-35.12,-47.77,-52.22,-53.73
2022/09/28 01:59:48+0000,-37.07,-44.54,-34.14,-50.17,-51.61,-53.68
2022/09/28 02:00:40+0000,-36.59,-44.18,-34.75,-49.93,-51.84,-53.54
2022/09/28 02:01:39+0000,-36.28,-43.75,-35.20,-49.80,-51.50,-53.60
2022/09/28 02:02:31+0000,-35.40,-44.41,-34.75,-46.96,-51.18,-53.46
2022/09/28 02:03:23+0000,-36.31,-44.30,-34.34,-47.27,-51.50,-53.23
2022/09/28 02:04:15+0000,-36.70,-43.78,-34.05,-49.66,-52.01,-53.82
2022/09/28 02:05:07+0000,-36.04,-44.29,-35.20,-49.74,-52.10,-53.66
2022/09/28 02:05:59+0000,-36.15,-43.63,-34.72,-50.15,-51.47,-53.16
2022/09/28 02:06:51+0000,-34.97,-46.27,-34.36,-50.39,-51.70,-53.38
2022/09/28 02:07:43+0000,-35.70,-44.50,-34.62,-50.55,-51.57,-53.51
2022/09/28 02:08:35+0000,-36.85,-45.44,-35.25,-50.06,-51.89,-53.57
2022/09/28 02:09:27+0000,-36.08,-44.44,-34.97,-49.95,-52.50,-53.93
2022/09/28 02:10:19+0000,-36.03,-43.95,-35.01,-49.96,-51.13,-53.58
2022/09/28 02:11:18+0000,-37.12,-44.57,-34.75,-49.94,-51.45,-53.11
2022/09/28 02:12:10+0000,-36.07,-43.40,-35.69,-50.39,-51.89,-53.64
2022/09/28 02:13:02+0000,-35.72,-44.05,-35.11,-50.19,-51.77,-53.72
2022/09/28 02:13:54+0000,-36.71,-44.53,-34.06,-49.45,-51.76,-53.64
2022/09/28 02:14:46+0000,-36.17,-44.50,-33.95,-49.51,-50.65,-53.33
2022/09/28 02:15:38+0000,-36.06,-44.15,-35.01,-50.29,-51.64,-53.56
2022/09/28 02:16:30+0000,-36.42,-44.97,-34.73,-49.82,-51.36,-53.47
2022/09/28 02:17:22+0000,-36.13,-44.55,-33.66,-50.45,-51.23,-53.15
2022/09/28 02:18:14+0000,-34.93,-44.70,-33.92,-50.04,-51.52,-53.57
2022/09/28 02:19:06+0000,-36.37,-46.30,-34.63,-49.59,-51.37,-53.47
2022/09/28 02:19:59+0000,-36.58,-43.92,-35.15,-49.77,-51.59,-53.61
2022/09/28 02:20:51+0000,-36.45,-46.58,-35.14,-49.96,-50.99,-53.61
2022/09/28 02:21:50+0000,-36.69,-44.16,-34.27,-50.26,-51.30,-53.66
2022/09/28 02:22:42+0000,-36.22,-43.19,-34.56,-49.82,-51.06,-53.71
2022/09/28 02:23:34+0000,-36.48,-44.67,-34.35,-50.62,-51.43,-52.97
2022/09/28 02:24:26+0000,-37.12,-45.60,-34.46,-50.49,-52.47,-53.30
2022/09/28 02:25:18+0000,-36.57,-42.50,-34.40,-50.05,-52.53,-53.97
2022/09/28 02:26:10+0000,-36.56,-43.86,-34.26,-49.70,-52.62,-53.73
2022/09/28 02:27:02+0000,-36.48,-45.80,-33.96,-50.43,-52.49,-54.22
2022/09/28 02:27:54+0000,-37.30,-44.25,-34.72,-49.82,-52.94,-53.65
2022/09/28 02:28:46+0000,-37.52,-42.40,-33.98,-49.64,-53.33,-53.66
2022/09/28 02:29:38+0000,-36.92,-43.70,-33.97,-49.50,-53.82,-53.96
2022/09/28 02:30:30+0000,-36.54,-44.99,-34.82,-49.73,-50.58,-52.92
2022/09/28 02:31:30+0000,-36.67,-45.41,-33.99,-49.34,-48.38,-52.37
2022/09/28 02:32:22+0000,-37.06,-45.79,-34.48,-49.80,-51.02,-52.89
2022/09/28 02:33:14+0000,-36.11,-40.85,-34.27,-49.41,-51.21,-52.70
2022/09/28 02:34:06+0000,-36.13,-45.90,-35.02,-50.06,-50.20,-52.94
2022/09/28 02:34:58+0000,-37.04,-43.21,-34.18,-50.20,-50.70,-52.88
2022/09/28 02:35:50+0000,-37.43,-41.21,-33.92,-49.86,-50.15,-52.82
2022/09/28 02:36:42+0000,-36.27,-41.56,-34.50,-49.94,-49.87,-52.60
2022/09/28 02:37:34+0000,-36.52,-44.31,-33.98,-49.94,-50.45,-53.07
2022/09/28 02:38:26+0000,-35.55,-44.85,-34.28,-49.50,-50.09,-53.25
2022/09/28 02:39:18+0000,-36.63,-42.96,-33.98,-49.21,-49.57,-53.47
2022/09/28 02:40:10+0000,-35.89,-43.32,-34.25,-49.77,-50.72,-52.92
2022/09/28 02:41:09+0000,-35.85,-41.22,-34.52,-49.28,-52.31,-53.32
2022/09/28 02:42:01+0000,-37.00,-43.50,-34.30,-48.87,-49.95,-52.48
2022/09/28 02:42:53+0000,-35.96,-44.56,-34.47,-49.50,-51.89,-52.49
2022/09/28 02:43:45+0000,-36.28,-42.05,-34.36,-49.83,-51.23,-52.67
2022/09/28 02:44:37+0000,-36.02,-45.47,-34.06,-49.26,-52.45,-52.67
2022/09/28 02:45:29+0000,-36.68,-44.09,-34.64,-49.49,-50.88,-52.64
2022/09/28 02:46:21+0000,-36.11,-46.48,-34.68,-48.84,-50.71,-52.34
2022/09/28 02:47:13+0000,-35.50,-42.38,-34.34,-48.92,-51.94,-52.22
2022/09/28 02:48:05+0000,-35.12,-44.26,-33.86,-49.13,-51.36,-52.45
2022/09/28 02:48:57+0000,-35.39,-45.12,-34.73,-49.38,-51.03,-52.46
2022/09/28 02:49:50+0000,-35.03,-42.18,-34.34,-49.23,-51.56,-51.94
2022/09/28 02:50:42+0000,-35.01,-42.75,-34.70,-48.93,-51.48,-52.84
2022/09/28 02:51:41+0000,-35.14,-42.48,-34.99,-48.57,-51.60,-51.96
2022/09/28 02:52:33+0000,-34.79,-44.92,-34.61,-48.96,-50.49,-51.77
2022/09/28 02:53:25+0000,-35.04,-45.24,-34.51,-48.89,-51.61,-52.85
2022/09/28 02:54:17+0000,-35.68,-42.63,-34.87,-48.71,-51.39,-52.50
2022/09/28 02:55:09+0000,-35.12,-42.39,-35.03,-49.49,-51.09,-52.56
2022/09/28 02:56:01+0000,-35.47,-43.37,-34.47,-49.30,-51.21,-52.34
2022/09/28 02:56:53+0000,-35.49,-46.83,-34.94,-48.80,-51.08,-52.04
2022/09/28 02:57:45+0000,-36.22,-41.92,-34.57,-49.12,-51.16,-52.22
2022/09/28 02:58:37+0000,-34.65,-47.22,-34.99,-48.82,-50.98,-52.93
2022/09/28 02:59:29+0000,-35.88,-43.78,-34.65,-49.02,-51.48,-52.13
2022/09/28 03:00:21+0000,-35.51,-42.31,-34.61,-49.09,-49.95,-52.46
2022/09/28 03:01:21+0000,-35.89,-46.53,-34.53,-49.14,-50.27,-52.67
2022/09/28 03:02:13+0000,-35.87,-41.98,-34.64,-49.29,-50.70,-51.80
2022/09/28 03:03:05+0000,-35.99,-45.26,-34.94,-48.60,-50.91,-52.26
2022/09/28 03:03:57+0000,-34.67,-45.49,-34.62,-48.52,-50.80,-52.27
2022/09/28 03:04:49+0000,-32.77,-42.22,-34.63,-49.52,-50.50,-52.21
2022/09/28 03:05:41+0000,-35.89,-42.90,-34.59,-48.97,-50.65,-52.39
2022/09/28 03:06:33+0000,-35.52,-43.66,-35.44,-48.66,-50.93,-52.77
2022/09/28 03:07:25+0000,-35.58,-45.10,-34.56,-48.30,-51.66,-52.12
2022/09/28 03:08:17+0000,-35.43,-42.62,-34.71,-48.12,-50.30,-52.19
2022/09/28 03:09:09+0000,-34.65,-43.32,-34.31,-48.73,-50.55,-51.34
2022/09/28 03:10:01+0000,-36.00,-44.18,-34.61,-48.67,-52.06,-52.25
2022/09/28 03:11:01+0000,-35.78,-45.07,-34.85,-48.76,-52.47,-52.70
2022/09/28 03:11:53+0000,-35.09,-45.65,-35.72,-49.12,-52.17,-52.21
2022/09/28 03:12:45+0000,-35.26,-45.50,-34.86,-48.50,-52.23,-52.50
2022/09/28 03:13:37+0000,-35.66,-47.09,-34.27,-49.17,-51.55,-52.10
2022/09/28 03:14:29+0000,-35.80,-43.58,-34.65,-48.47,-51.79,-52.39
2022/09/28 03:15:21+0000,-36.03,-47.78,-34.74,-47.96,-52.28,-52.67
2022/09/28 03:16:13+0000,-36.17,-45.45,-35.20,-48.01,-51.80,-52.49
2022/09/28 03:17:05+0000,-35.57,-46.25,-35.00,-48.31,-48.95,-50.28
2022/09/28 03:17:57+0000,-35.07,-43.09,-35.28,-48.97,-49.69,-51.97
2022/09/28 03:18:49+0000,-35.58,-44.52,-34.39,-48.33,-50.18,-51.66
2022/09/28 03:19:41+0000,-35.40,-44.55,-34.55,-48.12,-53.08,-52.17
2022/09/28 03:20:33+0000,-36.17,-45.70,-34.97,-49.18,-53.18,-52.56
2022/09/28 03:21:33+0000,-35.51,-43.11,-35.48,-48.19,-51.81,-53.08
2022/09/28 03:22:25+0000,-35.09,-42.91,-34.78,-48.29,-53.18,-52.23
2022/09/28 03:23:17+0000,-35.52,-44.01,-34.78,-48.26,-53.22,-52.29
2022/09/28 03:24:09+0000,-36.33,-45.04,-34.61,-48.37,-53.29,-52.84
2022/09/28 03:25:01+0000,-35.25,-42.56,-34.20,-47.95,-53.02,-52.44
2022/09/28 03:25:53+0000,-35.15,-43.41,-35.37,-48.36,-52.26,-52.89
2022/09/28 03:26:45+0000,-36.22,-42.78,-35.42,-48.77,-53.18,-52.83
2022/09/28 03:27:37+0000,-35.48,-46.87,-34.54,-48.52,-53.69,-52.67
2022/09/28 03:28:29+0000,-35.45,-45.40,-34.75,-47.71,-52.98,-52.65
2022/09/28 03:29:21+0000,-35.69,-47.51,-34.29,-48.50,-52.85,-52.45
2022/09/28 03:30:14+0000,-35.64,-43.70,-34.51,-48.52,-53.32,-52.79
2022/09/28 03:31:12+0000,-34.57,-44.26,-34.99,-48.68,-50.72,-51.45
2022/09/28 03:32:04+0000,-35.98,-43.51,-34.72,-48.74,-52.33,-52.56
2022/09/28 03:32:56+0000,-35.23,-43.04,-35.10,-48.14,-53.01,-52.65
2022/09/28 03:33:49+0000,-32.81,-45.05,-34.65,-47.96,-52.11,-53.15
2022/09/28 03:34:41+0000,-35.45,-43.54,-35.42,-48.68,-55.20,-53.54
2022/09/28 03:35:33+0000,-34.15,-41.43,-34.82,-48.47,-55.32,-53.29
2022/09/28 03:36:25+0000,-35.24,-41.78,-34.70,-47.81,-55.20,-53.18
2022/09/28 03:37:17+0000,-36.21,-44.12,-34.66,-48.27,-55.31,-52.84
2022/09/28 03:38:09+0000,-34.79,-44.49,-34.68,-48.35,-55.62,-53.57
2022/09/28 03:39:01+0000,-35.11,-42.13,-34.78,-48.61,-55.25,-53.89
2022/09/28 03:39:53+0000,-35.59,-45.49,-34.38,-48.90,-55.07,-53.22
2022/09/28 03:40:45+0000,-35.67,-45.61,-34.37,-48.37,-55.29,-53.34
2022/09/28 03:41:44+0000,-35.20,-45.79,-34.80,-48.46,-55.40,-53.27
2022/09/28 03:42:36+0000,-35.06,-45.11,-35.12,-48.88,-55.55,-53.26
2022/09/28 03:43:28+0000,-35.47,-42.70,-34.48,-48.40,-54.91,-53.57
2022/09/28 03:44:20+0000,-36.01,-45.51,-34.45,-48.76,-55.36,-53.30
2022/09/28 03:45:12+0000,-34.59,-46.11,-34.29,-48.44,-55.23,-53.77
2022/09/28 03:46:04+0000,-36.11,-42.85,-34.54,-48.19,-55.10,-52.82
2022/09/28 03:46:56+0000,-35.69,-44.57,-34.94,-48.10,-55.72,-53.22
2022/09/28 03:47:48+0000,-35.09,-45.91,-34.97,-48.41,-55.35,-52.81
2022/09/28 03:48:40+0000,-34.58,-45.98,-34.22,-48.29,-42.43,-49.46
2022/09/28 03:49:32+0000,-34.91,-42.22,-35.22,-48.81,-45.23,-49.75
2022/09/28 03:50:24+0000,-34.98,-43.65,-34.66,-48.12,-45.98,-49.93
2022/09/28 03:51:24+0000,-35.85,-42.64,-35.05,-48.16,-45.24,-50.39
2022/09/28 03:52:16+0000,-34.95,-45.56,-35.25,-49.01,-45.86,-50.48
2022/09/28 03:53:08+0000,-35.63,-47.11,-34.46,-48.45,-46.22,-50.25
2022/09/28 03:54:00+0000,-35.63,-44.58,-34.95,-49.05,-46.29,-50.30
2022/09/28 03:54:52+0000,-35.10,-47.25,-34.55,-48.73,-47.32,-51.07
2022/09/28 03:55:44+0000,-33.38,-42.89,-34.87,-48.43,-47.67,-50.24
2022/09/28 03:56:36+0000,-34.59,-44.28,-34.90,-47.77,-47.69,-50.81
2022/09/28 03:57:28+0000,-35.63,-45.83,-35.26,-49.14,-48.55,-51.50
2022/09/28 03:58:20+0000,-35.57,-42.99,-34.29,-48.48,-48.40,-51.10
2022/09/28 03:59:12+0000,-35.24,-44.12,-35.44,-49.20,-48.52,-50.89
2022/09/28 04:00:04+0000,-34.56,-44.72,-35.27,-48.65,-48.93,-51.28
2022/09/28 04:01:04+0000,-33.69,-45.59,-35.10,-48.98,-49.83,-51.20
2022/09/28 04:01:56+0000,-35.23,-43.86,-34.42,-49.32,-49.42,-50.40
2022/09/28 04:02:48+0000,-36.55,-44.36,-34.59,-48.74,-49.01,-51.15
2022/09/28 04:03:40+0000,-35.94,-44.26,-34.75,-48.65,-50.45,-51.00
2022/09/28 04:04:32+0000,-35.19,-44.14,-34.70,-48.48,-49.21,-50.69
2022/09/28 04:05:24+0000,-35.17,-44.79,-34.51,-48.55,-50.28,-50.93
2022/09/28 04:06:16+0000,-34.67,-43.90,-34.76,-48.50,-50.70,-50.65
2022/09/28 04:07:08+0000,-34.87,-43.41,-34.88,-49.13,-50.78,-51.13
2022/09/28 04:08:00+0000,-35.89,-44.44,-34.67,-48.92,-49.98,-50.11
2022/09/28 04:08:52+0000,-34.25,-44.00,-34.77,-48.54,-50.71,-50.50
2022/09/28 04:09:44+0000,-35.46,-42.08,-34.05,-48.24,-50.33,-51.24
2022/09/28 04:10:36+0000,-35.15,-44.98,-34.41,-48.25,-50.63,-51.02
2022/09/28 04:11:35+0000,-35.33,-44.40,-34.40,-47.86,-50.30,-51.69
2022/09/28 04:12:27+0000,-35.61,-43.91,-34.75,-48.17,-50.57,-51.56
2022/09/28 04:13:19+0000,-34.33,-43.70,-34.71,-48.55,-50.40,-51.76
2022/09/28 04:14:11+0000,-34.75,-44.07,-34.38,-48.36,-50.19,-51.46
2022/09/28 04:15:03+0000,-34.46,-43.40,-34.88,-48.28,-49.73,-50.76
2022/09/28 04:15:55+0000,-34.67,-44.79,-34.01,-48.77,-50.01,-51.30
2022/09/28 04:16:47+0000,-35.17,-43.37,-34.17,-48.54,-50.17,-51.65
2022/09/28 04:17:39+0000,-34.88,-44.61,-34.87,-47.90,-49.63,-51.14
2022/09/28 04:18:31+0000,-35.08,-43.75,-34.50,-47.67,-52.08,-52.15
2022/09/28 04:19:23+0000,-34.82,-44.04,-34.65,-48.13,-51.94,-51.93
2022/09/28 04:20:16+0000,-35.57,-44.93,-34.14,-47.88,-51.83,-51.92
2022/09/28 04:21:15+0000,-35.97,-44.54,-34.74,-47.71,-51.99,-52.24
2022/09/28 04:22:07+0000,-34.67,-45.61,-34.73,-48.19,-51.58,-51.69
2022/09/28 04:22:59+0000,-36.10,-43.25,-34.62,-47.74,-51.55,-52.44
2022/09/28 04:23:51+0000,-34.82,-44.75,-34.68,-47.60,-51.48,-52.40
2022/09/28 04:24:43+0000,-34.51,-44.94,-34.37,-47.33,-52.35,-52.43
2022/09/28 04:25:35+0000,-35.97,-43.70,-35.00,-48.16,-52.21,-52.15
2022/09/28 04:26:27+0000,-34.70,-44.07,-35.08,-47.16,-51.26,-51.67
2022/09/28 04:27:19+0000,-35.28,-44.66,-34.79,-47.31,-52.72,-52.58
2022/09/28 04:28:11+0000,-34.96,-44.74,-34.74,-47.66,-51.33,-52.86
2022/09/28 04:29:03+0000,-35.07,-43.50,-34.76,-48.21,-51.79,-52.49
2022/09/28 04:29:55+0000,-35.52,-42.78,-35.56,-48.02,-51.45,-52.63
2022/09/28 04:30:47+0000,-35.39,-43.93,-35.26,-47.70,-52.04,-52.62
2022/09/28 04:31:49+0000,-35.13,-42.15,-34.40,-48.22,-51.95,-52.75
2022/09/28 04:32:41+0000,-35.18,-44.48,-35.31,-47.45,-51.79,-52.01
2022/09/28 04:33:33+0000,-35.88,-44.05,-34.66,-47.74,-52.20,-52.00
2022/09/28 04:34:25+0000,-36.01,-42.33,-35.57,-47.42,-50.94,-53.01
2022/09/28 04:35:17+0000,-36.14,-42.72,-34.72,-47.82,-50.95,-52.76
2022/09/28 04:36:09+0000,-35.25,-43.63,-34.56,-48.43,-51.86,-52.16
2022/09/28 04:37:01+0000,-35.96,-43.92,-35.12,-47.50,-51.42,-52.08
2022/09/28 04:37:53+0000,-36.97,-41.67,-34.64,-47.59,-51.79,-52.83
2022/09/28 04:38:45+0000,-35.70,-44.92,-34.61,-47.65,-51.61,-52.08
2022/09/28 04:39:37+0000,-35.01,-45.48,-34.91,-47.52,-51.29,-52.25
2022/09/28 04:40:29+0000,-34.78,-43.26,-35.28,-47.99,-51.10,-52.66
2022/09/28 04:41:29+0000,-35.97,-43.10,-35.04,-47.95,-51.90,-52.24
2022/09/28 04:42:21+0000,-36.72,-43.34,-34.54,-48.60,-47.74,-51.96
2022/09/28 04:43:13+0000,-34.82,-43.99,-34.15,-47.35,-49.52,-51.93
2022/09/28 04:44:05+0000,-33.86,-44.25,-34.12,-47.87,-49.55,-51.23
2022/09/28 04:44:57+0000,-35.72,-42.47,-34.97,-47.11,-50.44,-52.31
2022/09/28 04:45:49+0000,-35.36,-45.07,-35.05,-47.15,-49.99,-51.50
2022/09/28 04:46:41+0000,-35.82,-44.15,-34.24,-47.07,-49.02,-51.95